Location: Cuiry
(49.3858°N, 3.7708°E)
Time: 00:23:06
(UTC+00:00)

Resurs 1-3 - Pass Details

Date: 12 January 2026
Orbit: 612 x 615 km, 97.7° (Epoch: 18 February)

Event Time Altitude Azimuth Distance (km) Brightness Sun altitude
Rises 18:21:54 0° 176° (S) 2,874 7.1 -20.7°
Reaches altitude 10° 18:24:06 10° 180° (S) 1,974 6.2 -21.1°
Maximum altitude 18:28:20 57° 260° (W) 729 4.2 -21.8°
Drops below altitude 10° 18:32:36 10° 339° (NNW) 1,989 6.3 -22.5°
Sets 18:34:50 0° 344° (NNW) 2,900 7.1 -22.8°
